Regional Weather Roundup
Issued by NWS Huntsville, AL

Home | Current Version | Previous Version | Text Only | Print | Product List | Glossary On
Versions: 1 2 3 4 5 6 7 8 9 10 11 12 13 14 15 16 17 18 19 20 21 22 23 24 25 26 27
000
ASUS44 KHUN 252010
RWRHUN

WEATHER ROUNDUP FOR THE TENNESSEE VALLEY
NATIONAL WEATHER SERVICE HUNTSVILLE AL
300 PM CDT THU MAY 25 2017

ALZ001>004-252100-
NORTHWEST ALABAMA

CITY           SKY/WX    TMP DP  RH WIND       PRES   REMARKS
COURTLAND HCN    N/A     72 N/A N/A W12         N/A
RUSSELLVILLE     N/A     70 N/A N/A MISG        N/A
SHOALS AIRPORT MOSUNNY   74  49  41 W12       29.82F
SHOALS TVA RES   N/A     72 N/A N/A MISG        N/A
$$

ALZ005>007-016-252100-
NORTH CENTRAL ALABAMA

CITY           SKY/WX    TMP DP  RH WIND       PRES   REMARKS
CULLMAN AG STN   N/A     70 N/A N/A W9          N/A
DECATUR AP     MOSUNNY   72  51  47 W14       29.82S
HUNTSVILLE AP  PTSUNNY   73  52  47 W14G21    29.81S
MERIDIANVILLE  MOSUNNY   72  48  43 SW14G23   29.81R
REDSTONE ARSN  MOSUNNY   72  51  48 W10G21    29.80S
VINEMONT AP    FAIR      71  50  47 W7        29.85S
$$

ALZ008>010-252100-
NORTHEAST ALABAMA

CITY           SKY/WX    TMP DP  RH WIND       PRES   REMARKS
ALBERTVILLE    MOSUNNY   70  55  60 W12G21    29.82S
FORT PAYNE     MOSUNNY   70  46  43 SW15      29.79F
SCOTTSBORO HCN   N/A     72 N/A N/A MISG        N/A
VALLEY HEAD      N/A     70 N/A N/A MISG        N/A
$$

TNZ076-096-097-252100-
SOUTHEASTERN MIDDLE TENNESSEE

CITY           SKY/WX    TMP DP  RH WIND       PRES   REMARKS
TULLAHOMA      NOT AVBL
$$

...SURROUNDING SITES...

CITY           SKY/WX    TMP DP  RH WIND       PRES   REMARKS
ATLANTA        MOSUNNY   72  50  45 W14G24    29.80F
ANNISTON       MOSUNNY   72  52  49 W14       29.83S
BIRMINGHAM     MOSUNNY   71  50  47 W10       29.86F
CHATTANOOGA    PTSUNNY   72  49  44 W10G20    29.76S
CORINTH        FAIR      73  52  46 W8G16     29.81F
DALTON         PTSUNNY   70  50  49 W9G20     29.77F
GADSDEN        MOSUNNY   72  53  51 SW13G21   29.83S
GOLDEN TRNGL   MOSUNNY   75  52  43 W9        29.80F
HALEYVILLE     FAIR      70  52  52 W8        29.85F
JACKSON TN     SUNNY     75  51  43 W12G18    29.79F
MEMPHIS        MOSUNNY   75  52  44 VRB3G21   29.80F
NASHVILLE      PTSUNNY   74  52  46 W13G23    29.76R
ROME           MOSUNNY   73  52  47 W14G21    29.78F
SAVANNAH       PTSUNNY   73  50  43 W6G15     29.80S
SELMER         PTSUNNY   70  50  49 VRB7G14   29.80F
TUPELO         SUNNY     75  49  39 SW10      29.82F
TUSCALOOSA     SUNNY     76  52  43 W13       29.85F
$$

...GULF COAST WEATHER...

CITY           SKY/WX    TMP DP  RH WIND       PRES   REMARKS
GULFPORT       SUNNY     82  53  36 NW10G22   29.86F
PASCAGOULA     SUNNY     81  47  30 VRB3      29.87F
MOBILE         SUNNY     79  49  34 NW7G18    29.88F
GULF SHORES    CLEAR     77  55  45 W9G17     29.87F
PENSACOLA      MOSUNNY   80  46  30 VRB7      29.86F
DESTIN         SUNNY     81  54  39 SW7       29.86S
PANAMA CITY    SUNNY     77  53  43 W13       29.86F
APPALACHICOLA  SUNNY     78  52  40 NW13      29.87F
$$





USA.gov is the U.S. government's official web portal to all federal, state and local government web resources and services.